This demonstration page uses our WeatherBlox Daily Observations layout. Learn more.

Left ArrowRight Arrow

39.08367, -84.50855

Hourly Observations for August 30, 2020

Temp ( °F °C ) Dew Point ( °F °C ) Humidity (%) Winds ( mph kmh ) Pressure ( in mb ) Visibility ( mi km ) Precip ( " mm )
12:53 am 00:53 Clear 69 20.6 56 13.3 63 63 N 5 7 29.85 1011 10 16 N/A
1:53 am 01:53 Mostly Cloudy 64 17.8 59 15 84 84 N N/A 29.87 1011 10 16 N/A
2:53 am 02:53 Clear 63 17.2 56 13.3 78 78 E 3 6 29.85 1011 10 16 N/A
3:53 am 03:53 Clear 61 16.1 57 13.9 87 87 N N/A 29.87 1012 10 16 N/A
4:53 am 04:53 Clear 59 15 57 13.9 93 93 N N/A 29.88 1012 10 16 N/A
5:53 am 05:53 Clear 58 14.4 56 13.3 93 93 N N/A 29.90 1013 10 16 N/A
6:23 am 06:23 Clear with Mist and Fog 57 13.9 56 13.3 96 96 N N/A 29.92 1013 2 3 N/A
6:31 am 06:31 Clear 58 14.4 57 13.9 97 97 NE 3 6 29.91 1013 10 16 N/A
6:53 am 06:53 Clear 57 13.9 55 12.8 93 93 N N/A 29.91 1013 10 16 N/A
7:53 am 07:53 Sunny 57 13.9 56 13.3 96 96 N N/A 29.93 1014 10 16 N/A
8:53 am 08:53 Sunny 63 17.2 58 14.4 84 84 N N/A 29.93 1014 10 16 N/A
9:53 am 09:53 Sunny 70 21.1 58 14.4 66 66 ENE 5 7 29.93 1014 10 16 N/A
10:53 am 10:53 Sunny 73 22.8 56 13.3 55 55 NNE 5 7 29.95 1014 10 16 N/A
11:53 am 11:53 Sunny 76 24.4 53 11.7 45 45 N N/A 29.95 1014 10 16 N/A
12:53 pm 12:53 Sunny 78 25.6 55 12.8 45 45 ENE 7 11 29.92 1013 10 16 N/A
1:53 pm 13:53 Sunny 79 26.1 52 11.1 39 39 NNE 6 9 29.90 1013 10 16 N/A
2:53 pm 14:53 Sunny 80 26.7 52 11.1 38 38 NE 6 9 29.88 1012 10 16 N/A
3:53 pm 15:53 Sunny 80 26.7 53 11.7 39 39 NE 7 11 29.86 1011 10 16 N/A
4:53 pm 16:53 Sunny 80 26.7 55 12.8 42 42 VRB 3 6 29.85 1011 10 16 N/A
5:53 pm 17:53 Sunny 77 25 56 13.3 48 48 E 6 9 29.85 1011 10 16 N/A
6:53 pm 18:53 Sunny 75 23.9 58 14.4 55 55 E 3 6 29.85 1011 10 16 N/A
7:53 pm 19:53 Sunny 71 21.7 61 16.1 71 71 NE 3 6 29.86 1011 10 16 N/A
8:53 pm 20:53 Clear 67 19.4 60 15.6 79 79 N N/A 29.88 1012 10 16 N/A
9:53 pm 21:53 Clear 67 19.4 61 16.1 81 81 ENE 5 7 29.88 1012 10 16 N/A
10:53 pm 22:53 Clear 67 19.4 60 15.6 79 79 NNE 3 6 29.87 1011 10 16 N/A
11:53 pm 23:53 Clear 62 16.7 60 15.6 93 93 N N/A 29.88 1012 10 16 N/A

Powered by AerisWeather